[[{"header":{"parameterUnit":"m.s-1","parameterCategory":1,"la1":30.2991,"la2":30.254,"lo1":-89.0895,"lo2":-89.0444,"dy":0.0017,"dx":0.0017,"nx":28,"ny":28,"refTime":"2024-11-24T09:00:00:Z","depth":0,"parameterNumber":2,"parameterNumberName":"U-component_of_WINDS"},"data":[0,0,0,0,0,0,0,0,0,0,0,0,0,0,0,0,0,0,0,0,0,0,0,0,0,0,0,0,0,0,0,0,0,0,0,0,0,0,0,0,0,0,0,0,0,0,0,0,0,0,0,0,0,0,0,0,0,0,2.9805,2.9807,0,3.0075,3.0078,3.0081,3.0138,3.0136,3.0134,3.0132,3.0411,3.042,3.0429,0,0,0,0,0,0,0,0,0,0,0,0,0,2.9337,2.9345,2.9804,2.9808,2.9811,3.0075,3.0078,3.0082,3.0138,3.0136,3.0134,3.0131,3.0408,3.0419,3.043,0,0,0,0,0,0,0,0,0,0,0,0,0,2.9567,2.9348,2.9804,2.9871,2.988,3.0074,3.0078,3.0083,3.0139,3.0136,3.0133,3.013,3.0405,3.0418,3.0432,3.0579,0,0,3.0475,3.0481,0,0,0,0,0,0,0,0,2.9554,2.9584,2.9858,2.9867,2.9877,3.007,3.0016,3.0249,3.014,3.0041,3.0132,3.0129,3.03,3.0323,3.038,3.0592,3.0604,3.0476,3.0484,3.049,3.0494,0,0,0,0,0,0,0,2.9538,2.9573,2.9911,2.9861,2.9873,2.9888,2.9917,3.006,3.0184,3.0049,3.0054,3.0085,3.0305,3.0366,3.0387,3.0608,3.0475,3.0488,3.0496,3.0502,3.0953,3.0956,0,0,0,0,0,0,2.951,2.9559,2.9903,2.992,2.9704,2.9899,2.9931,3.0011,3.0183,3.0206,3.0087,3.0087,3.0344,3.0371,3.0397,3.058,3.049,3.0503,3.0511,3.0949,3.0954,3.0958,0,0,0,0,0,0,2.95,2.954,2.9892,2.9741,2.9787,2.991,2.9999,3.0018,3.0079,3.0212,3.0234,3.0127,3.0343,3.0377,3.0533,3.059,3.051,3.0522,3.0945,3.0951,3.0956,3.0946,0,0,0,0,0,0,2.9486,2.9536,2.9593,2.9742,2.9795,3.0023,3.0002,3.0025,3.0103,3.0105,3.0255,3.0277,3.0343,3.0512,3.0547,3.0608,3.0533,3.0941,3.0948,3.0954,3.0942,3.095,3.0958,0,0,0,0,0,2.9469,2.958,2.9596,2.9637,2.9868,3.0026,3.0056,3.0129,3.0108,3.0166,3.0251,3.0272,3.0578,3.0527,3.0567,3.0633,3.0937,3.0946,3.0954,3.0938,3.0949,3.0958,0,0,0,0,0,0,2.9436,2.9601,2.962,2.9782,2.989,3.0035,3.0111,3.0138,3.0255,3.0251,3.0337,3.0371,3.0521,3.0593,3.0533,3.0784,3.0757,3.0773,3.0731,3.0743,3.075,3.073,3.0545,0,0,0,0,0,2.9448,2.9562,2.97,2.983,2.9882,2.9987,3.0059,3.0105,3.022,3.0266,3.0363,3.0474,3.0595,3.0673,3.0792,3.0953,3.0986,3.1018,3.1026,3.1032,3.1045,3.1134,3.115,3.0984,3.0984,3.0984,0,0,2.9473,2.9577,2.9644,2.9826,2.9914,3.003,3.0025,3.0149,3.0236,3.0286,3.0438,3.0512,3.0642,3.08,3.0875,3.0865,3.1098,3.1042,3.1046,3.1056,3.1144,3.1159,3.1173,3.099,3.0989,3.0988,0,0,2.9578,2.9668,2.9786,2.9874,3.0008,3.0077,3.0105,3.0247,3.0298,3.0452,3.0491,3.0596,3.0803,3.0893,3.0966,3.1104,3.1128,3.114,3.1182,3.1268,3.1281,3.1293,3.1341,3.1358,3.1153,3.1153,3.1153,0,2.9593,2.9769,2.9843,2.9965,3.0043,3.0092,3.0212,3.0294,3.046,3.0513,3.05,3.0759,3.085,3.103,3.1063,3.1121,3.1155,3.1124,3.1273,3.1286,3.1298,3.1345,3.1363,3.1154,3.1154,3.1154,3.1154,0,2.9779,2.9901,2.998,3.0137,3.0225,3.0345,3.0437,3.0517,3.0556,3.0626,3.0781,3.0892,3.1033,3.108,3.1119,3.1265,3.1254,3.1256,3.123,3.1313,3.1359,3.1377,3.1154,3.1154,3.1154,3.1154,0,0,2.9872,3.0068,3.0096,3.0167,3.0318,3.0414,3.0535,3.0673,3.0739,3.0851,3.0955,3.1129,3.1131,3.1213,3.1264,3.1339,3.144,3.1332,3.1336,3.1347,3.1606,3.1603,3.1622,3.1457,3.146,3.1463,3.1594,0,2.9995,3.0213,3.0283,3.0465,3.0577,3.0625,3.0731,3.0835,3.0903,3.1009,3.1085,3.1206,3.12,3.125,3.1327,3.1411,3.1493,3.1403,3.1554,3.1558,3.1519,3.1646,3.1644,3.1763,3.1613,3.1616,3.1618,0,3.0167,3.0281,3.0473,3.0608,3.0658,3.0752,3.0883,3.0984,3.1102,3.1147,3.1238,3.1282,3.1411,3.1377,3.1556,3.1493,3.1559,3.161,3.1616,3.1632,3.1593,3.1665,3.1802,3.1819,3.1647,3.1645,3.1643,0,3.0214,3.0415,3.0556,3.0616,3.0778,3.0842,3.0913,3.1028,3.1106,3.122,3.1271,3.14,3.147,3.1568,3.1645,3.1614,3.1817,3.179,3.1857,3.1855,3.1897,3.1893,3.2046,3.1941,3.1941,3.194,3.194,0,3.0343,3.0459,3.0579,3.0666,3.0797,3.0876,3.1003,3.1076,3.1179,3.128,3.133,3.1424,3.1521,3.1628,3.169,3.1827,3.1859,3.1898,3.1913,3.1894,3.1888,3.1938,3.1931,3.1945,3.1944,3.1943,3.1942,0,3.0417,3.0503,3.0659,3.0798,3.0836,3.0926,3.1046,3.1132,3.1202,3.133,3.1364,3.1475,3.1603,3.169,3.1855,3.1896,3.2045,3.2059,3.2005,3.2012,3.2073,3.2066,3.2262,3.2292,3.2167,3.2168,3.2169,0,3.0494,3.0583,3.0732,3.0803,3.0873,3.0987,3.1066,3.1148,3.1228,3.1369,3.1437,3.1569,3.1679,3.1882,3.1977,3.2103,3.212,3.218,3.2139,3.2116,3.2119,3.2113,3.2122,3.2186,3.2187,3.2187,3.2188,0,3.062,3.0657,3.0769,3.0895,3.0987,3.1091,3.1195,3.125,3.135,3.1437,3.1569,3.1653,3.1821,3.1951,3.2086,3.2159,3.219,3.22,3.2222,3.2203,3.2167,3.2186,3.2021,3.2195,3.2194,3.2194,3.2194,3.2193,3.0697,3.0779,3.0895,3.1017,3.1104,3.1199,3.1286,3.1366,3.1477,3.1619,3.1661,3.1797,3.1913,3.2097,3.2172,3.228,3.2274,3.2306,3.2314,3.2321,3.232,3.215,3.2305,3.2305,3.2305,3.2305,3.2305,0,3.0825,3.0902,3.1013,3.1156,3.1252,3.1272,3.1388,3.1467,3.1586,3.1691,3.1797,3.1947,3.2073,3.2177,3.2307,3.2374,3.2391,3.2405,3.2401,3.2417,3.2318,3.2286,3.2388,3.2388,3.2388,3.2388,3.2388,3.2388,3.0903,3.1041,3.1092,3.1273,3.135,3.1483,3.1547,3.1635,3.1719,3.1884,3.1989,3.2055,3.216,3.2298,3.2414,3.2442,3.2487,3.2497,3.2527,3.2433,3.2424,3.2415,3.2384,3.2506,3.2507,3.2617,3.2618,3.2619]},{"header":{"parameterUnit":"m.s-1","parameterCategory":1,"la1":30.2991,"la2":30.254,"lo1":-89.0895,"lo2":-89.0444,"dy":0.0017,"dx":0.0017,"nx":28,"ny":28,"refTime":"2024-11-24T09:00:00:Z","depth":0,"parameterNumber":3,"parameterNumberName":"V-component_of_WINDS"},"data":[0,0,0,0,0,0,0,0,0,0,0,0,0,0,0,0,0,0,0,0,0,0,0,0,0,0,0,0,0,0,0,0,0,0,0,0,0,0,0,0,0,0,0,0,0,0,0,0,0,0,0,0,0,0,0,0,0,0,1.2522,1.2523,0,1.2656,1.2658,1.2659,1.2706,1.2705,1.2704,1.2704,1.2844,1.2848,1.2852,0,0,0,0,0,0,0,0,0,0,0,0,0,1.2306,1.2309,1.2522,1.2523,1.2525,1.2656,1.2658,1.266,1.2706,1.2705,1.2704,1.2704,1.2842,1.2847,1.2853,0,0,0,0,0,0,0,0,0,0,0,0,0,1.2416,1.2311,1.2521,1.2564,1.2569,1.2656,1.2658,1.266,1.2706,1.2705,1.2704,1.2703,1.2841,1.2847,1.2853,1.2908,0,0,1.2873,1.2875,0,0,0,0,0,0,0,0,1.2409,1.2424,1.2556,1.2561,1.2567,1.2663,1.2633,1.2743,1.2706,1.2654,1.2704,1.2703,1.2785,1.2795,1.2823,1.2915,1.2921,1.2873,1.2877,1.288,1.2882,0,0,0,0,0,0,0,1.2402,1.2418,1.2575,1.2558,1.2564,1.2576,1.2591,1.2654,1.2722,1.2658,1.2662,1.2677,1.2787,1.2816,1.2826,1.2923,1.2873,1.2879,1.2883,1.2885,1.3067,1.3068,0,0,0,0,0,0,1.2387,1.2411,1.2571,1.2579,1.2484,1.2581,1.2597,1.2633,1.2722,1.2734,1.2678,1.2679,1.2806,1.2819,1.2831,1.2901,1.288,1.2886,1.2889,1.3066,1.3067,1.3068,0,0,0,0,0,0,1.2382,1.2401,1.2565,1.2496,1.2518,1.2585,1.2625,1.2636,1.2665,1.2736,1.2749,1.2695,1.2806,1.2822,1.2889,1.2907,1.2888,1.2894,1.3064,1.3066,1.3067,1.3042,0,0,0,0,0,0,1.2376,1.2399,1.242,1.2496,1.2522,1.262,1.2626,1.2639,1.2676,1.2678,1.2755,1.2767,1.2806,1.2879,1.2895,1.2915,1.2899,1.3063,1.3065,1.3067,1.3042,1.3042,1.3043,0,0,0,0,0,1.2368,1.2408,1.2421,1.244,1.255,1.2621,1.2635,1.2679,1.2677,1.2699,1.2745,1.2765,1.2902,1.2885,1.2904,1.2926,1.3062,1.3065,1.3067,1.3041,1.3042,1.3043,0,0,0,0,0,0,1.2334,1.2419,1.2434,1.2501,1.2553,1.2629,1.2658,1.2679,1.2734,1.2734,1.2786,1.2803,1.2865,1.2902,1.2882,1.2984,1.2983,1.2989,1.2957,1.2959,1.296,1.295,1.2904,0,0,0,0,0,1.2334,1.2384,1.2456,1.2508,1.2533,1.2591,1.2623,1.2652,1.2709,1.2732,1.2782,1.2837,1.2892,1.2928,1.2982,1.3047,1.3064,1.3071,1.3072,1.3072,1.3077,1.3113,1.3117,1.3075,1.3075,1.3075,0,0,1.2335,1.2388,1.2416,1.2502,1.2546,1.2597,1.2609,1.2663,1.2701,1.274,1.2805,1.2844,1.2908,1.2973,1.3005,1.3007,1.3092,1.3075,1.3075,1.308,1.3116,1.312,1.3123,1.3077,1.3077,1.3077,0,0,1.2363,1.2408,1.2455,1.2499,1.2564,1.2602,1.2613,1.2686,1.2713,1.2779,1.2808,1.2855,1.2949,1.2994,1.3029,1.3071,1.3092,1.3087,1.3092,1.3127,1.313,1.3133,1.3148,1.3153,1.3092,1.3092,1.3092,0,1.2356,1.2434,1.2477,1.2529,1.2566,1.2601,1.265,1.269,1.2771,1.2795,1.2796,1.2914,1.296,1.3036,1.3046,1.3073,1.3087,1.308,1.3126,1.313,1.3133,1.3148,1.3154,1.3091,1.3091,1.3091,1.3091,0,1.2422,1.2475,1.2505,1.2581,1.2621,1.2671,1.2722,1.2758,1.2782,1.282,1.2886,1.2942,1.3009,1.3029,1.3054,1.3108,1.3107,1.3116,1.3116,1.3136,1.3151,1.3157,1.309,1.309,1.309,1.309,0,0,1.2434,1.2531,1.2542,1.2576,1.2651,1.2693,1.2744,1.2808,1.2837,1.2891,1.2935,1.3013,1.3022,1.3061,1.3091,1.3121,1.3151,1.3127,1.3129,1.313,1.3213,1.3206,1.3212,1.3165,1.3166,1.3167,1.3208,0,1.2471,1.2564,1.2604,1.2678,1.2727,1.2761,1.2805,1.2856,1.2892,1.2939,1.298,1.3034,1.3041,1.3065,1.3096,1.3141,1.3169,1.3138,1.3207,1.3209,1.319,1.322,1.3213,1.3249,1.3214,1.3215,1.3216,0,1.2528,1.2581,1.2659,1.2727,1.2749,1.2788,1.2849,1.2894,1.2952,1.2976,1.3019,1.3047,1.3102,1.3098,1.3174,1.3152,1.3183,1.3208,1.3211,1.322,1.3214,1.323,1.3262,1.3267,1.3226,1.3225,1.3224,0,1.2529,1.262,1.2678,1.2706,1.2786,1.2813,1.2848,1.2904,1.294,1.2993,1.3017,1.3076,1.3109,1.3154,1.3198,1.3191,1.327,1.3269,1.3292,1.329,1.3308,1.3306,1.3345,1.3326,1.3326,1.3326,1.3326,0,1.2567,1.2614,1.2679,1.2715,1.2768,1.2814,1.2865,1.2902,1.2952,1.2996,1.3029,1.307,1.3125,1.3172,1.3207,1.3264,1.3279,1.33,1.3309,1.3297,1.3295,1.3319,1.3317,1.3327,1.3327,1.3327,1.3326,0,1.2577,1.2623,1.2689,1.2758,1.2777,1.2813,1.2873,1.2909,1.2946,1.3001,1.3017,1.3075,1.3133,1.318,1.3256,1.3279,1.3339,1.3349,1.3319,1.3324,1.3344,1.3341,1.34,1.341,1.3383,1.3383,1.3384,0,1.2599,1.2636,1.2708,1.274,1.2773,1.2824,1.2859,1.2905,1.2941,1.3008,1.3037,1.3096,1.3146,1.3237,1.3286,1.3344,1.3356,1.3372,1.3365,1.3352,1.3356,1.3354,1.3357,1.3373,1.3373,1.3373,1.3373,0,1.2633,1.2653,1.2703,1.276,1.2802,1.285,1.2898,1.2922,1.2977,1.3015,1.3074,1.3113,1.3189,1.3248,1.3311,1.3347,1.3369,1.3375,1.3383,1.3373,1.3354,1.3364,1.3321,1.3374,1.3374,1.3374,1.3374,1.3374,1.265,1.2683,1.2739,1.2794,1.2834,1.2879,1.2916,1.2957,1.3006,1.3071,1.3095,1.3155,1.3211,1.3297,1.3333,1.3381,1.3384,1.3396,1.3399,1.3401,1.34,1.3345,1.3393,1.3393,1.3393,1.3393,1.3393,0,1.2685,1.2722,1.2771,1.2838,1.288,1.2896,1.295,1.2985,1.3037,1.3087,1.3135,1.3202,1.3258,1.3311,1.3371,1.3398,1.341,1.3413,1.3411,1.3419,1.3394,1.3381,1.3402,1.3402,1.3402,1.3402,1.3402,1.3402,1.2708,1.2766,1.2792,1.287,1.2908,1.2966,1.2995,1.3036,1.3076,1.3149,1.3195,1.3229,1.328,1.3343,1.3396,1.341,1.343,1.343,1.3447,1.3423,1.3421,1.342,1.3408,1.3434,1.3434,1.3468,1.3469,1.3469]}]]